TimeEDT,TemperatureF,Dew PointF,Humidity,Sea Level PressureIn,VisibilityMPH,Wind Direction,Wind SpeedMPH,Gust SpeedMPH,PrecipitationIn,Events,Conditions,WindDirDegrees,DateUTC
12:53 AM,32.0,27.0,82,30.30,10.0,Calm,Calm,-,N/A,,Clear,0,2011-11-05 04:53:00
1:53 AM,30.9,27.0,85,30.30,10.0,Calm,Calm,-,N/A,,Clear,0,2011-11-05 05:53:00
2:53 AM,28.9,26.1,89,30.31,10.0,NNW,3.5,-,N/A,,Clear,330,2011-11-05 06:53:00
3:53 AM,28.0,25.0,88,30.31,10.0,Calm,Calm,-,N/A,,Clear,0,2011-11-05 07:53:00
4:53 AM,26.1,24.1,92,30.31,10.0,Calm,Calm,-,N/A,,Clear,0,2011-11-05 08:53:00
5:53 AM,27.0,24.1,89,30.32,10.0,Calm,Calm,-,N/A,,Clear,0,2011-11-05 09:53:00
6:53 AM,26.1,23.0,88,30.34,10.0,Calm,Calm,-,N/A,,Clear,0,2011-11-05 10:53:00
8:53 AM,30.0,27.0,88,30.36,10.0,Calm,Calm,-,N/A,,Clear,0,2011-11-05 12:53:00
9:53 AM,37.0,30.0,76,30.38,10.0,ESE,3.5,-,N/A,,Clear,110,2011-11-05 13:53:00
10:53 AM,42.1,27.0,55,30.36,10.0,ESE,12.7,-,N/A,,Clear,120,2011-11-05 14:53:00
12:53 PM,48.9,27.0,43,30.35,10.0,Calm,Calm,-,N/A,,Clear,0,2011-11-05 16:53:00
1:53 PM,52.0,26.1,37,30.32,10.0,ESE,8.1,-,N/A,,Clear,120,2011-11-05 17:53:00
2:53 PM,55.0,26.1,33,30.30,10.0,ESE,4.6,-,N/A,,Clear,110,2011-11-05 18:53:00
4:53 PM,55.9,27.0,33,30.28,10.0,East,4.6,-,N/A,,Clear,100,2011-11-05 20:53:00
5:53 PM,53.1,25.0,34,30.28,10.0,SE,8.1,-,N/A,,Clear,130,2011-11-05 21:53:00
6:53 PM,45.0,26.1,48,30.28,10.0,ESE,4.6,-,N/A,,Clear,120,2011-11-05 22:53:00
7:53 PM,39.0,28.9,67,30.28,10.0,Calm,Calm,-,N/A,,Clear,0,2011-11-05 23:53:00
8:53 PM,36.0,28.0,73,30.29,10.0,Calm,Calm,-,N/A,,Clear,0,2011-11-06 00:53:00
9:53 PM,35.1,28.0,76,30.28,10.0,Calm,Calm,-,N/A,,Clear,0,2011-11-06 01:53:00
10:53 PM,32.0,28.0,85,30.27,10.0,Calm,Calm,-,N/A,,Clear,0,2011-11-06 02:53:00
11:53 PM,30.0,26.1,85,30.27,10.0,Calm,Calm,-,N/A,,Clear,0,2011-11-06 03:53:00